Mackinac Island, MI

3:30 PM EST on February 22, 2018 (GMT -0500)
Mackinac Island

Weather History for KMCD - October, 2010

Change the Weather History Date:

Tuesday, October 19, 2010

  Actual Average Record
Temperature  
Mean Temperature 44 °F -  
Max Temperature 51 °F 49 °F 64 °F (2017)
Min Temperature 37 °F 39 °F 20 °F (1974)
Degree Days  
Heating Degree Days 21    
Moisture  
Dew Point 36 °F    
Average Humidity 67    
Maximum Humidity 87    
Minimum Humidity 57    
Precipitation  
Precipitation 0.00 in - - ()
Sea Level Pressure  
Sea Level Pressure 29.81 in    
Wind  
Wind Speed 5 mph (WNW)    
Max Wind Speed 14 mph    
Max Gust Speed 25 mph    
Visibility 10 miles    
Events      
Averages and records for this station are not official NWS values.
T = Trace of Precipitation, MM = Missing Value Source: NWS Daily Summary

Daily Weather History Graph

Daily Weather History Graph

Search for Another Location

Airport or City:

Trip Planner

Search our weather history database for the weather conditions in past years. The results will help you decide how hot, cold, wet, or windy it might be!

Date:

Astronomy

Oct. 19, 2010 Rise Set
Actual Time 8:00 AM EDT 6:45 PM EDT
Civil Twilight 7:30 AM EDT 7:15 PM EDT
Nautical Twilight 6:55 AM EDT 7:50 PM EDT
Astronomical Twilight 6:21 AM EDT 8:24 PM EDT
Moon 5:01 PM EDT (10/19) 4:36 AM EDT (10/19)
Length of Visible Light 11h 45m
Length of Day
10h 44m
Waxing Gibbous, 89% of the Moon is Illuminated
Oct 19
Waxing Gibbous
Oct 22
Full
Oct 30
Last Quarter
Nov 6
New
Nov 13
First Quarter

Hourly Weather History & Observations

Time (EDT) Temp. Windchill Dew Point Humidity Pressure Visibility Wind Dir Wind Speed Gust Speed Precip Events Conditions
12:15 AM 37.4 °F - 33.8 °F 87% 29.89 in 10.0 mi Calm Calm - N/A   Scattered Clouds
12:35 AM 37.4 °F - 33.8 °F 87% 29.88 in 10.0 mi Calm Calm - N/A   Scattered Clouds
12:55 AM 37.4 °F - 33.8 °F 87% 29.87 in 10.0 mi Calm Calm - N/A   Clear
1:15 AM 37.4 °F - 33.8 °F 87% 29.87 in 10.0 mi Calm Calm - N/A   Clear
1:35 AM 44.6 °F - 33.8 °F 66% 29.86 in 10.0 mi Calm Calm - N/A   Clear
1:55 AM 44.6 °F 42.2 °F 32.0 °F 61% 29.86 in 10.0 mi WNW 4.6 mph - N/A   Clear
2:15 AM 44.6 °F 42.2 °F 33.8 °F 66% 29.85 in 10.0 mi WNW 4.6 mph - N/A   Clear
2:35 AM 44.6 °F 42.2 °F 33.8 °F 66% 29.85 in 10.0 mi West 4.6 mph - N/A   Clear
2:55 AM 44.6 °F 43.1 °F 33.8 °F 66% 29.85 in 10.0 mi West 3.5 mph - N/A   Clear
3:15 AM 44.6 °F - 33.8 °F 66% 29.84 in 10.0 mi Calm Calm - N/A   Clear
3:35 AM 42.8 °F 41.1 °F 33.8 °F 70% 29.83 in 10.0 mi West 3.5 mph - N/A   Clear
3:55 AM 42.8 °F 41.1 °F 33.8 °F 70% 29.83 in 10.0 mi West 3.5 mph - N/A   Clear
4:15 AM 44.6 °F 43.1 °F 33.8 °F 66% 29.83 in 10.0 mi WNW 3.5 mph - N/A   Clear
4:35 AM 44.6 °F 42.2 °F 32.0 °F 61% 29.82 in 10.0 mi West 4.6 mph - N/A   Clear
4:55 AM 44.6 °F 43.1 °F 32.0 °F 61% 29.82 in 10.0 mi West 3.5 mph - N/A   Scattered Clouds
5:15 AM 46.4 °F 44.3 °F 32.0 °F 57% 29.81 in 10.0 mi West 4.6 mph - N/A   Scattered Clouds
5:35 AM 46.4 °F 43.5 °F 33.8 °F 62% 29.81 in 10.0 mi West 5.8 mph - N/A   Scattered Clouds
5:55 AM 46.4 °F 42.9 °F 33.8 °F 62% 29.81 in 10.0 mi West 6.9 mph - N/A   Clear
6:15 AM 46.4 °F 41.9 °F 33.8 °F 62% 29.81 in 10.0 mi West 9.2 mph 16.1 mph N/A   Clear
6:55 AM 46.4 °F 42.4 °F 35.6 °F 66% 29.81 in 10.0 mi WNW 8.1 mph - N/A   Clear
7:15 AM 46.4 °F 42.9 °F 35.6 °F 66% 29.80 in 10.0 mi West 6.9 mph - N/A   Clear
7:35 AM 46.4 °F 42.4 °F 35.6 °F 66% 29.80 in 10.0 mi West 8.1 mph - N/A   Clear
7:55 AM 46.4 °F 41.1 °F 37.4 °F 71% 29.80 in 10.0 mi West 11.5 mph 17.3 mph N/A   Clear
8:15 AM 46.4 °F 41.9 °F 37.4 °F 71% 29.80 in 10.0 mi WNW 9.2 mph 17.3 mph N/A   Clear
8:35 AM 46.4 °F 42.4 °F 37.4 °F 71% 29.80 in 10.0 mi WNW 8.1 mph 18.4 mph N/A   Clear
8:55 AM 46.4 °F 42.9 °F 37.4 °F 71% 29.80 in 10.0 mi West 6.9 mph 18.4 mph N/A   Clear
9:15 AM 46.4 °F 44.3 °F 37.4 °F 71% 29.80 in 10.0 mi West 4.6 mph - N/A   Clear
9:35 AM 48.2 °F - 37.4 °F 66% 29.80 in 10.0 mi West 9.2 mph - N/A   Clear
9:55 AM 50.0 °F - 37.4 °F 62% 29.79 in 10.0 mi West 9.2 mph - N/A   Clear
10:15 AM 50.0 °F - 39.2 °F 66% 29.79 in 10.0 mi West 10.4 mph 16.1 mph N/A   Scattered Clouds
10:35 AM 50.0 °F - 39.2 °F 66% 29.79 in 10.0 mi WNW 13.8 mph 21.9 mph N/A   Mostly Cloudy
10:55 AM 50.0 °F - 41.0 °F 71% 29.80 in 10.0 mi West 12.7 mph 19.6 mph N/A   Mostly Cloudy
11:15 AM 50.0 °F - 41.0 °F 71% 29.79 in 10.0 mi West 6.9 mph - N/A   Scattered Clouds
11:35 AM 50.0 °F - 41.0 °F 71% 29.79 in 10.0 mi West 6.9 mph 19.6 mph N/A   Scattered Clouds
11:55 AM 50.0 °F - 41.0 °F 71% 29.78 in 10.0 mi West 8.1 mph 16.1 mph N/A   Scattered Clouds
12:15 PM 50.0 °F - 41.0 °F 71% 29.78 in 10.0 mi West 11.5 mph 18.4 mph N/A   Clear
12:35 PM 50.0 °F - 41.0 °F 71% 29.78 in 10.0 mi West 10.4 mph 17.3 mph N/A   Clear
12:55 PM 51.8 °F - 41.0 °F 67% 29.79 in 10.0 mi West 10.4 mph 18.4 mph N/A   Clear
1:15 PM 51.8 °F - 41.0 °F 67% 29.78 in 10.0 mi West 13.8 mph 20.7 mph N/A   Clear
1:35 PM 51.8 °F - 39.2 °F 62% 29.78 in 10.0 mi West 10.4 mph 21.9 mph N/A   Clear
1:55 PM 51.8 °F - 37.4 °F 58% 29.77 in 10.0 mi West 13.8 mph 23.0 mph N/A   Clear
2:15 PM 51.8 °F - 37.4 °F 58% 29.77 in 10.0 mi West 11.5 mph 25.3 mph N/A   Scattered Clouds
2:35 PM 50.0 °F - 37.4 °F 62% 29.78 in 10.0 mi NNW 11.5 mph 19.6 mph N/A   Overcast
3:15 PM 48.2 °F - 35.6 °F 62% 29.79 in 10.0 mi NW 8.1 mph - N/A   Overcast
3:35 PM 48.2 °F - 35.6 °F 62% 29.79 in 10.0 mi NW 10.4 mph - N/A   Overcast
3:55 PM 50.0 °F - 35.6 °F 58% 29.79 in 10.0 mi NW 10.4 mph - N/A   Overcast
4:15 PM 48.2 °F - 35.6 °F 62% 29.79 in 10.0 mi NW 10.4 mph 17.3 mph N/A   Overcast
4:35 PM 48.2 °F - 35.6 °F 62% 29.79 in 10.0 mi WNW 10.4 mph - N/A   Mostly Cloudy
4:55 PM 50.0 °F - 35.6 °F 58% 29.79 in 10.0 mi WNW 6.9 mph - N/A   Mostly Cloudy
5:15 PM 50.0 °F - 35.6 °F 58% 29.79 in 10.0 mi WNW 10.4 mph - N/A   Overcast
5:35 PM 50.0 °F - 35.6 °F 58% 29.79 in 10.0 mi NW 11.5 mph - N/A   Mostly Cloudy
5:55 PM 50.0 °F - 37.4 °F 62% 29.79 in 10.0 mi WNW 8.1 mph - N/A   Mostly Cloudy
6:15 PM 50.0 °F - 37.4 °F 62% 29.79 in 10.0 mi WNW 9.2 mph - N/A   Scattered Clouds
6:35 PM 48.2 °F - 35.6 °F 62% 29.79 in 10.0 mi WNW 5.8 mph - N/A   Clear
6:55 PM 46.4 °F 44.3 °F 35.6 °F 66% 29.79 in 10.0 mi WNW 4.6 mph - N/A   Clear
7:15 PM 46.4 °F 44.3 °F 37.4 °F 71% 29.79 in 10.0 mi West 4.6 mph - N/A   Clear
7:35 PM 46.4 °F - 37.4 °F 71% 29.79 in 10.0 mi Calm Calm - N/A   Clear
7:55 PM 44.6 °F - 37.4 °F 76% 29.79 in 10.0 mi Calm Calm - N/A   Clear
8:15 PM 44.6 °F - 37.4 °F 76% 29.78 in 10.0 mi Calm Calm - N/A   Clear
8:35 PM 42.8 °F - 37.4 °F 81% 29.78 in 10.0 mi Calm Calm - N/A   Clear
8:55 PM 42.8 °F - 37.4 °F 81% 29.77 in 10.0 mi Calm Calm - N/A   Clear
9:15 PM 41.0 °F - 37.4 °F 87% 29.77 in 10.0 mi Calm Calm - N/A   Scattered Clouds
9:35 PM 46.4 °F 45.2 °F 41.0 °F 81% 29.77 in 10.0 mi SSW 3.5 mph - N/A   Mostly Cloudy
9:55 PM 46.4 °F 45.2 °F 41.0 °F 81% 29.76 in 10.0 mi SSW 3.5 mph - N/A   Overcast
10:15 PM 48.2 °F - 41.0 °F 76% 29.76 in 10.0 mi SSW 3.5 mph - N/A   Overcast
10:35 PM 46.4 °F 44.3 °F 39.2 °F 76% 29.75 in 10.0 mi South 4.6 mph - N/A   Overcast
10:55 PM 48.2 °F - 39.2 °F 71% 29.75 in 10.0 mi SSW 4.6 mph - N/A   Overcast
11:15 PM 48.2 °F - 39.2 °F 71% 29.74 in 10.0 mi SSW 5.8 mph - N/A   Overcast
11:55 PM 48.2 °F - 41.0 °F 76% 29.72 in 10.0 mi SW 4.6 mph - N/A   Mostly Cloudy